Location: Newark
(14.9306°N, 3.4333°E)
Time: 11:44:48
(UTC+00:00)

Hubble Space Telescope - Visible Passes

Search period start: 22 October 2020 00:00
Search period end: 01 November 2020 00:00
Orbit: 536 x 540 km, 28.5° (Epoch: 22 October)

Date Brightness Start Highest point End Pass type
(mag) Time Alt. Az. Time Alt. Az. Time Alt. Az.
22 Oct 2.6 18:36:52 10° NNW 18:39:43 18° NNE 18:39:43 18° NNE visible
23 Oct 2.3 18:25:57 10° NW 18:29:10 21° NNE 18:29:44 21° NNE visible
24 Oct 2.1 18:15:03 10° NW 18:18:31 26° NNE 18:19:51 21° NE visible
25 Oct 1.7 18:04:10 10° NW 18:07:52 31° NNE 18:10:03 19° ENE visible
25 Oct 3.9 19:45:03 10° WNW 19:45:24 12° WNW 19:45:24 12° WNW visible
26 Oct 1.4 17:53:17 10° NW 17:57:11 40° NNE 18:00:22 14° E visible
26 Oct 3.4 19:34:28 10° W 19:35:44 18° W 19:35:44 18° W visible
27 Oct 1.0 17:42:27 10° NW 17:46:28 52° NNE 17:50:30 10° E visible
27 Oct 3.0 19:23:59 10° W 19:26:12 23° WSW 19:26:12 23° WSW visible
28 Oct 2.9 19:13:39 10° W 19:16:48 21° SSW 19:16:48 21° SSW visible
29 Oct 3.3 19:03:33 10° WSW 19:06:01 15° SSW 19:07:30 13° S visible
30 Oct 3.7 18:54:06 10° SW 18:55:15 11° SSW 18:56:24 10° SSW visible
